Location: New Greens
(51.7702°N, 0.3379°W)
Time: 20:43:42
(UTC+00:00)

Envisat - Pass Details

Date: 30 January 2019
Orbit: 764 x 766 km, 98.2° (Epoch: 19 February)

Event Time Altitude Azimuth Distance (km) Brightness Sun altitude
Rises 20:12:36 0° 217° (SW) 3,225 6.5 -31.8°
Reaches altitude 10° 20:16:00 10° 242° (WSW) 2,304 6.0 -32.3°
Maximum altitude 20:18:44 14° 275° (W) 2,014 5.9 -32.8°
Drops below altitude 10° 20:21:28 10° 307° (NW) 2,313 6.2 -33.2°
Sets 20:24:55 0° 332° (NNW) 3,246 6.8 -33.7°
